Starlink 31295

operational
NORAD ID: 59095 Int'l Des: 2024-041 Owner: SPXS Country: US Constellation: starlink
LEOCIRCULAR

关于 Starlink 31295

正在加载描述...

实时位置

正在加载3D地球...

即将过境

高度历史

Altitude vs Time

uPlot chart will show altitude changes over time

两行轨道根数

1 59095U 24041X 26062.16297476 -.00007108 00000-0 -24874-3 0 9993
2 59095 43.0046 347.5327 0001324 259.3352 100.7350 15.27614014113278
Epoch: Mar 3, 2026 • Age: 10 hours

当前状态

高度 494.3 km
速度 7.62 km/s
星下点 -40.41°S, 75.53°W
发射日期 Feb 29, 2024
运行时间 2 years
类型 internet

技术详情

分类 Payload
质量 730.00 kg
干质量 700.00 kg
总质量 730.00 kg
长度 0.30 m
直径 4.10 m
跨度 29.00 m
形状 Box + pan
制造商 SPXS
平台类型 Starlink V2M
阶段状态 In Orbit
所有者/国家 SPXS/US

大型星座

Loading constellations...